Graham, TX

5:14 AM CDT on August 19, 2017 (GMT -0500)
Graham

Weather History for KRPH - November, 2013

Change the Weather History Date:

Tuesday, November 26, 2013

  Actual Average (KMWL) Record (KMWL)
Temperature  
Mean Temperature 41 °F -  
Max Temperature 49 °F 61 °F 75 °F (2003)
Min Temperature 33 °F 39 °F 27 °F (2010)
Degree Days  
Heating Degree Days 24    
Moisture  
Dew Point 29 °F    
Average Humidity 68    
Maximum Humidity 93    
Minimum Humidity 38    
Precipitation  
Precipitation 0.00 in - - ()
Sea Level Pressure  
Sea Level Pressure 30.27 in    
Wind  
Wind Speed 11 mph (NNW)    
Max Wind Speed 24 mph    
Max Gust Speed 33 mph    
Visibility 10 miles    
Events      
Averages and records for this station are not official NWS values.
T = Trace of Precipitation, MM = Missing Value Source: NWS Daily Summary

Daily Weather History Graph

Daily Weather History Graph

Search for Another Location

Airport or City:

Trip Planner

Search our weather history database for the weather conditions in past years. The results will help you decide how hot, cold, wet, or windy it might be!

Date:

Astronomy

Nov. 26, 2013 Rise Set
Actual Time 7:15 AM CST 5:27 PM CST
Civil Twilight 6:48 AM CST 5:54 PM CST
Nautical Twilight 6:18 AM CST 6:24 PM CST
Astronomical Twilight 5:48 AM CST 6:54 PM CST
Moon 12:40 AM CST (11/26) 1:17 PM CST (11/26)
Length of Visible Light 11h 06m
Length of Day
10h 12m
Last Quarter, 41% of the Moon is Illuminated
Nov 26
Last Quarter
Dec 2
New
Dec 9
First Quarter
Dec 17
Full
Dec 25
Last Quarter

Hourly Weather History & Observations

Time (CST) Temp. Windchill Dew Point Humidity Pressure Visibility Wind Dir Wind Speed Gust Speed Precip Events Conditions
12:15 AM 33.8 °F 25.3 °F 31.8 °F 92% 30.21 in 10.0 mi NNW 11.5 mph 17.3 mph N/A   Overcast
12:35 AM 33.8 °F 27.7 °F 32.0 °F 93% 30.21 in 10.0 mi NNW 6.9 mph - N/A   Overcast
12:55 AM 34.0 °F 26.6 °F 31.8 °F 92% 30.21 in 10.0 mi NNW 9.2 mph - N/A   Overcast
1:15 AM 33.8 °F 27.7 °F 31.6 °F 92% 30.20 in 10.0 mi NW 6.9 mph - N/A   Overcast
1:35 AM 34.0 °F 27.2 °F 31.5 °F 90% 30.20 in 10.0 mi NW 8.1 mph - N/A   Overcast
1:55 AM 34.2 °F 26.2 °F 31.1 °F 89% 30.21 in 10.0 mi NNW 10.4 mph - N/A   Overcast
2:15 AM 34.2 °F 27.5 °F 31.1 °F 89% 30.21 in 10.0 mi NW 8.1 mph - N/A   Overcast
2:35 AM 34.3 °F 27.7 °F 31.1 °F 88% 30.21 in 10.0 mi NW 8.1 mph - N/A   Overcast
2:55 AM 34.2 °F 26.2 °F 31.1 °F 89% 30.20 in 10.0 mi NW 10.4 mph - N/A   Overcast
3:15 AM 34.2 °F 25.7 °F 31.1 °F 89% 30.19 in 10.0 mi NW 11.5 mph - N/A   Overcast
3:35 AM 34.0 °F 26.0 °F 31.8 °F 92% 30.20 in 7.0 mi NW 10.4 mph - N/A   Overcast
3:55 AM 34.2 °F 26.2 °F 31.8 °F 91% 30.20 in 10.0 mi NW 10.4 mph - N/A   Overcast
4:15 AM 33.8 °F 27.7 °F 32.0 °F 93% 30.20 in 7.0 mi NW 6.9 mph - N/A   Overcast
4:35 AM 34.0 °F 27.2 °F 32.0 °F 92% 30.21 in 10.0 mi NW 8.1 mph - N/A   Overcast
4:55 AM 34.3 °F 27.7 °F 32.0 °F 91% 30.21 in 10.0 mi NNW 8.1 mph - N/A   Overcast
5:15 AM 34.7 °F 30.6 °F 32.0 °F 90% 30.22 in 10.0 mi NW 4.6 mph - N/A   Overcast
5:35 AM 34.5 °F 28.6 °F 32.0 °F 90% 30.22 in 10.0 mi WNW 6.9 mph - N/A   Overcast
5:55 AM 34.7 °F 27.5 °F 32.0 °F 90% 30.22 in 10.0 mi NW 9.2 mph - N/A   Overcast
6:15 AM 34.7 °F 28.1 °F 31.8 °F 89% 30.22 in 10.0 mi NW 8.1 mph - N/A   Overcast
6:35 AM 34.9 °F 28.3 °F 31.8 °F 89% 30.23 in 10.0 mi NW 8.1 mph - N/A   Overcast
6:55 AM 35.2 °F 30.3 °F 31.6 °F 87% 30.24 in 10.0 mi NW 5.8 mph - N/A   Overcast
7:15 AM 35.6 °F 29.2 °F 31.5 °F 85% 30.24 in 10.0 mi NW 8.1 mph - N/A   Overcast
7:35 AM 35.6 °F 29.2 °F 31.1 °F 84% 30.25 in 10.0 mi NW 8.1 mph - N/A   Overcast
7:55 AM 36.1 °F 29.9 °F 31.5 °F 83% 30.25 in 10.0 mi NW 8.1 mph - N/A   Overcast
8:15 AM 36.5 °F 28.2 °F 31.3 °F 81% 30.25 in 10.0 mi NW 12.7 mph 17.3 mph N/A   Overcast
8:35 AM 37.0 °F 28.9 °F 31.3 °F 80% 30.26 in 10.0 mi NW 12.7 mph 18.4 mph N/A   Scattered Clouds
8:55 AM 37.9 °F 30.0 °F 31.5 °F 77% 30.26 in 10.0 mi NW 12.7 mph 19.6 mph N/A   Clear
9:15 AM 38.8 °F 31.6 °F 31.1 °F 74% 30.27 in 10.0 mi NNW 11.5 mph 16.1 mph N/A   Clear
9:35 AM 39.4 °F 31.4 °F 31.1 °F 72% 30.27 in 10.0 mi NW 13.8 mph 19.6 mph N/A   Clear
9:55 AM 40.1 °F 32.0 °F 31.1 °F 70% 30.28 in 10.0 mi NNW 15.0 mph 20.7 mph N/A   Clear
10:15 AM 41.2 °F 33.7 °F 31.1 °F 67% 30.28 in 10.0 mi NNW 13.8 mph 18.4 mph N/A   Clear
10:35 AM 42.4 °F 36.5 °F 31.1 °F 64% 30.28 in 10.0 mi NNW 10.4 mph 24.2 mph N/A   Clear
10:55 AM 43.2 °F 35.9 °F 31.5 °F 63% 30.28 in 10.0 mi North 15.0 mph 20.7 mph N/A   Clear
11:15 AM 44.2 °F 36.7 °F 31.5 °F 61% 30.28 in 10.0 mi NNW 17.3 mph 23.0 mph N/A   Clear
11:35 AM 45.1 °F 38.8 °F 31.1 °F 58% 30.28 in 10.0 mi NNW 13.8 mph 24.2 mph N/A   Clear
11:55 AM 46.9 °F - 31.5 °F 55% 30.27 in 10.0 mi NNW 18.4 mph 25.3 mph N/A   Clear
12:15 PM 47.5 °F - 30.2 °F 51% 30.26 in 10.0 mi NNW 21.9 mph 25.3 mph N/A   Clear
12:35 PM 47.8 °F - 29.8 °F 50% 30.26 in 10.0 mi North 17.3 mph 24.2 mph N/A   Clear
12:55 PM 48.9 °F - 30.4 °F 49% 30.25 in 10.0 mi NNW 15.0 mph 23.0 mph N/A   Clear
1:15 PM 48.9 °F - 28.9 °F 46% 30.24 in 10.0 mi NNW 16.1 mph 28.8 mph N/A   Clear
1:35 PM 49.6 °F - 28.4 °F 44% 30.23 in 10.0 mi NNW 20.7 mph 31.1 mph N/A   Clear
1:55 PM 49.6 °F - 28.2 °F 44% 30.23 in 10.0 mi NNW 21.9 mph 32.2 mph N/A   Clear
2:15 PM 49.8 °F - 26.2 °F 40% 30.23 in 10.0 mi NNW 21.9 mph 29.9 mph N/A   Clear
2:35 PM 49.6 °F - 25.7 °F 39% 30.23 in 10.0 mi NNW 23.0 mph 29.9 mph N/A   Clear
2:55 PM 49.8 °F - 25.7 °F 39% 30.23 in 10.0 mi NNW 13.8 mph 28.8 mph N/A   Clear
3:15 PM 49.5 °F - 24.4 °F 38% 30.24 in 10.0 mi NNW 23.0 mph 33.4 mph N/A   Clear
3:35 PM 49.5 °F - 24.6 °F 38% 30.24 in 10.0 mi NNW 19.6 mph 27.6 mph N/A   Clear
3:55 PM 48.4 °F - 24.6 °F 39% 30.26 in 10.0 mi NNW 21.9 mph 32.2 mph N/A   Clear
4:15 PM 47.3 °F - 23.9 °F 40% 30.27 in 10.0 mi NW 19.6 mph 29.9 mph N/A   Clear
4:35 PM 46.8 °F - 24.4 °F 42% 30.27 in 10.0 mi NNW 24.2 mph 33.4 mph N/A   Clear
4:55 PM 46.2 °F 37.9 °F 25.3 °F 44% 30.27 in 10.0 mi NNW 24.2 mph 29.9 mph N/A   Clear
5:15 PM 45.5 °F 37.8 °F 24.6 °F 44% 30.28 in 10.0 mi NNW 19.6 mph 31.1 mph N/A   Clear
5:35 PM 44.4 °F 36.9 °F 25.2 °F 47% 30.28 in 10.0 mi NW 17.3 mph 24.2 mph N/A   Clear
5:55 PM 43.9 °F 37.9 °F 25.0 °F 47% 30.29 in 10.0 mi NW 11.5 mph 21.9 mph N/A   Clear
6:15 PM 43.7 °F 36.9 °F 25.0 °F 48% 30.30 in 10.0 mi NW 13.8 mph 20.7 mph N/A   Clear
6:35 PM 43.0 °F 36.4 °F 25.3 °F 50% 30.30 in 10.0 mi NW 12.7 mph - N/A   Clear
6:55 PM 42.1 °F 35.7 °F 26.6 °F 54% 30.31 in 10.0 mi NW 11.5 mph - N/A   Clear
7:15 PM 41.5 °F 35.9 °F 27.1 °F 57% 30.32 in 10.0 mi NW 9.2 mph - N/A   Clear
7:35 PM 41.4 °F 35.7 °F 27.3 °F 57% 30.32 in 10.0 mi NW 9.2 mph - N/A   Clear
7:55 PM 40.6 °F 34.3 °F 27.5 °F 59% 30.32 in 10.0 mi NW 10.4 mph - N/A   Clear
8:15 PM 40.1 °F 34.1 °F 27.9 °F 62% 30.33 in 10.0 mi NW 9.2 mph - N/A   Clear
8:35 PM 39.2 °F 35.0 °F 27.7 °F 63% 30.34 in 10.0 mi NNW 5.8 mph - N/A   Clear
8:55 PM 38.3 °F 33.9 °F 27.9 °F 66% 30.35 in 10.0 mi NW 5.8 mph - N/A   Clear
9:15 PM 38.5 °F 34.1 °F 27.9 °F 66% 30.36 in 10.0 mi NNW 5.8 mph - N/A   Clear
9:35 PM 38.3 °F 33.9 °F 27.5 °F 65% 30.36 in 10.0 mi NW 5.8 mph - N/A   Clear
9:55 PM 37.2 °F 33.6 °F 27.5 °F 68% 30.37 in 10.0 mi NNW 4.6 mph - N/A   Clear
10:15 PM 35.6 °F 29.2 °F 27.9 °F 73% 30.38 in 10.0 mi North 8.1 mph - N/A   Clear
10:35 PM 36.5 °F 28.7 °F 27.5 °F 70% 30.39 in 10.0 mi North 11.5 mph - N/A   Clear
10:55 PM 36.1 °F 29.3 °F 26.4 °F 68% 30.40 in 10.0 mi NNW 9.2 mph - N/A   Clear
11:15 PM 35.6 °F 28.6 °F 25.7 °F 67% 30.41 in 10.0 mi North 9.2 mph - N/A   Clear
11:35 PM 35.1 °F 25.9 °F 25.7 °F 69% 30.41 in 10.0 mi North 13.8 mph 18.4 mph N/A   Clear
11:55 PM 34.3 °F 27.0 °F 25.3 °F 70% 30.42 in 10.0 mi North 9.2 mph - N/A   Clear